GW4332 Weather Reports


time (UTC)temp
F
wind
direction
speed
knots
gust
knots
rain 1hr
in
rain 24hr
in
rain mn
in
humidity
%
barometer
mb
20260509154030 62 2 7.8 11.3 0.00 0.00 0.00 59 1016.5
20260509153030 62 352 7.8 12.2 0.00 0.00 0.00 60 1016.6
20260509152029 61 340 8.7 12.2 0.00 0.00 0.00 61 1016.6
20260509151030 61 343 9.6 12.2 0.00 0.00 0.00 61 1016.7
20260509150030 61 348 7.8 11.3 0.00 0.00 0.00 61 1017.0
20260509145030 61 340 9.6 13.0 0.00 0.00 0.00 60 1017.2
20260509144030 61 332 8.7 12.2 0.00 0.00 0.00 61 1017.3
20260509143029 61 1 6.1 12.2 0.00 0.00 0.00 60 1017.5
20260509142030 60 338 9.6 12.2 0.00 0.00 0.00 61 1017.4
20260509141029 61 331 10.4 13.0 0.00 0.00 0.00 60 1017.5
20260509140030 61 339 9.6 13.0 0.00 0.00 0.00 58 1017.6
20260509135030 61 341 8.7 13.0 0.00 0.00 0.00 58 1017.7
20260509134029 61 0 7.8 12.2 0.00 0.00 0.00 61 1017.7
20260509133030 60 335 9.6 13.0 0.00 0.00 0.00 61 1017.9
20260509132029 60 329 9.6 13.0 0.00 0.00 0.00 60 1018.2
20260509131029 60 338 8.7 11.3 0.00 0.00 0.00 61 1018.2
20260509130030 60 335 7.8 11.3 0.00 0.00 0.00 60 1018.4
20260509125029 60 327 9.6 12.2 0.00 0.00 0.00 61 1018.6
20260509124030 59 323 9.6 12.2 0.00 0.00 0.00 62 1018.6
20260509123030 59 327 9.6 13.0 0.00 0.00 0.00 63 1018.6
20260509122029 60 321 10.4 12.2 0.00 0.00 0.00 61 1018.7
20260509121029 61 346 5.2 11.3 0.00 0.00 0.00 58 1018.7
20260509120030 61 69 3.5 10.4 0.00 0.00 0.00 57 1018.7
20260509115029 61 83 3.5 10.4 0.00 0.00 0.00 56 1018.7
20260509114030 61 55 5.2 10.4 0.00 0.00 0.00 55 1018.7
20260509113030 60 12 5.2 11.3 0.00 0.00 0.00 57 1018.7
20260509112029 60 31 7.0 11.3 0.00 0.00 0.00 57 1018.9
20260509111030 60 5 6.1 11.3 0.00 0.00 0.00 58 1018.9
20260509110029 61 37 3.5 7.8 0.00 0.00 0.00 57 1019.0
20260509105030 60 20 4.3 12.2 0.00 0.00 0.00 58 1019.0
20260509104029 60 59 4.3 10.4 0.00 0.00 0.00 56 1019.2
20260509103030 60 61 3.5 10.4 0.00 0.00 0.00 56 1019.4
20260509102029 61 36 3.5 8.7 0.00 0.00 0.00 55 1019.4
20260509101030 61 64 5.2 10.4 0.00 0.00 0.00 56 1019.5
20260509100030 61 61 1.7 9.6 0.00 0.00 0.00 59 1019.6
20260509095030 60 85 2.6 7.8 0.00 0.00 0.00 61 1019.5
20260509094029 59 56 4.3 8.7 0.00 0.00 0.00 61 1019.5
20260509093030 59 78 1.7 10.4 0.00 0.00 0.00 62 1019.4
20260509092029 58 89 3.5 10.4 0.00 0.00 0.00 63 1019.5
20260509091030 58 109 2.6 12.2 0.00 0.00 0.00 65 1019.5
20260509090029 57 102 4.3 12.2 0.00 0.00 0.00 66 1019.5
20260509085030 57 76 5.2 11.3 0.00 0.00 0.00 67 1019.5
20260509084030 56 103 1.7 11.3 0.00 0.00 0.00 69 1019.4
20260509083029 56 130 0.9 12.2 0.00 0.00 0.00 69 1019.5
20260509082030 56 78 1.7 13.0 0.00 0.00 0.00 71 1019.6
20260509081029 56 101 4.3 13.9 0.00 0.00 0.00 72 1019.8
20260509080030 55 72 0.9 9.6 0.00 0.00 0.00 73 1019.8
20260509075030 55 178 0.0 7.8 0.00 0.00 0.00 74 1019.9
20260509074030 55 223 0.0 7.8 0.00 0.00 0.00 74 1019.9
20260509073029 55 120 2.6 10.4 0.00 0.00 0.00 75 1019.8
20260509072030 55 114 1.7 8.7 0.00 0.00 0.00 76 1019.9
20260509071029 54 118 0.9 7.8 0.00 0.00 0.00 77 1019.9
20260509070030 53 324 0.9 9.6 0.00 0.00 0.00 78 1019.9
20260509065029 53 84 0.9 7.8 0.00 0.00 0.00 79 1019.9
20260509064030 52 279 0.9 5.2 0.00 0.00 0.00 80 1020.0
20260509063029 52 68 0.0 7.0 0.00 0.00 0.00 81 1020.1
20260509062030 51 140 0.9 9.6 0.00 0.00 0.00 82 1020.0
20260509061030 51 107 0.9 6.1 0.00 0.00 0.00 82 1020.0
20260509060030 50 171 0.9 7.8 0.00 0.00 0.00 83 1020.1
20260509055030 50 155 0.0 5.2 0.00 0.00 0.00 83 1019.9
20260509054030 49 93 0.9 7.0 0.00 0.00 0.00 83 1019.8
20260509053030 49 114 1.7 7.0 0.00 0.00 0.00 83 1019.7
20260509052029 49 95 0.9 7.0 0.00 0.00 0.00 83 1019.6
20260509051030 49 113 0.0 7.0 0.00 0.00 0.00 83 1019.7
20260509050030 48 118 0.9 6.1 0.00 0.00 0.00 83 1019.6
20260509045029 48 137 0.9 7.8 0.00 0.00 0.00 83 1019.5
20260509044030 48 109 1.7 7.0 0.00 0.00 0.00 83 1019.5
20260509043030 48 113 1.7 7.0 0.00 0.00 0.00 82 1019.5
20260509042030 48 103 1.7 6.1 0.00 0.00 0.00 82 1019.5
20260509041030 48 109 1.7 6.1 0.00 0.00 0.00 81 1019.4
20260509040029 48 159 1.7 7.8 0.00 0.00 0.00 81 1019.4
20260509035030 49 119 1.7 6.1 0.00 0.00 0.00 80 1019.5
20260509034030 49 104 2.6 6.1 0.00 0.00 0.00 80 1019.5
20260509033029 49 103 2.6 5.2 0.00 0.00 0.00 79 1019.4
20260509032030 49 103 1.7 5.2 0.00 0.00 0.00 79 1019.5
20260509031030 49 105 3.5 7.0 0.00 0.00 0.00 78 1019.5
20260509030029 50 106 3.5 6.1 0.00 0.00 0.00 78 1019.5
20260509025030 50 98 3.5 6.1 0.00 0.00 0.00 78 1019.5
20260509024030 50 98 3.5 6.1 0.00 0.00 0.00 77 1019.5
20260509023030 51 102 2.6 5.2 0.00 0.00 0.00 77 1019.6
20260509022030 51 106 1.7 3.5 0.00 0.00 0.00 77 1019.6
20260509021029 51 112 1.7 3.5 0.00 0.00 0.00 76 1019.5
20260509020030 51 104 0.9 2.6 0.00 0.00 0.00 76 1019.6
20260509015030 51 108 1.7 5.2 0.00 0.00 0.00 75 1019.6
20260509014029 51 121 0.9 5.2 0.00 0.00 0.00 75 1019.6
20260509013030 52 95 0.9 4.3 0.00 0.00 0.00 74 1019.6
20260509012029 52 160 0.0 3.5 0.00 0.00 0.00 74 1019.6
20260509011029 52 136 0.9 6.1 0.00 0.00 0.00 74 1019.6
20260509010030 52 112 0.9 6.1 0.00 0.00 0.00 73 1019.6
20260509005030 53 130 1.7 7.0 0.00 0.00 0.00 73 1019.6
20260509004029 53 98 0.9 7.0 0.00 0.00 0.00 73 1019.5
20260509003030 53 105 1.7 6.1 0.00 0.00 0.00 72 1019.5
20260509002029 53 149 0.9 7.8 0.00 0.00 0.00 72 1019.5
20260509001029 53 182 0.9 7.0 0.00 0.00 0.00 71 1019.4
20260509000030 54 145 1.7 7.8 0.00 0.00 0.00 71 1019.3
20260508235030 54 122 0.9 7.8 0.00 0.00 0.00 71 1019.3
20260508234029 54 125 0.9 7.8 0.00 0.00 0.00 70 1019.2
20260508233030 54 237 0.9 7.0 0.00 0.00 0.00 70 1019.3
20260508232030 55 183 0.9 5.2 0.00 0.00 0.00 69 1019.4
20260508231029 55 123 0.9 5.2 0.00 0.00 0.00 69 1019.4
20260508230030 55 102 1.7 5.2 0.00 0.00 0.00 68 1019.3
20260508225030 56 87 0.9 7.0 0.00 0.00 0.00 68 1019.4
20260508224029 56 121 1.7 6.1 0.00 0.00 0.00 67 1019.5
20260508223030 56 114 2.6 7.8 0.00 0.00 0.00 66 1019.5
20260508222030 57 129 0.9 6.1 0.00 0.00 0.00 66 1019.5
20260508221029 57 106 0.9 7.8 0.00 0.00 0.00 65 1019.5
20260508220030 57 149 0.0 6.1 0.00 0.00 0.00 65 1019.5
20260508215030 58 55 0.9 7.0 0.00 0.00 0.00 64 1019.4
20260508214029 58 95 0.9 6.1 0.00 0.00 0.00 64 1019.4
20260508213030 59 106 1.7 6.1 0.00 0.00 0.00 62 1019.3
20260508212029 59 122 0.0 7.0 0.00 0.00 0.00 62 1019.2
20260508211030 59 93 0.9 7.8 0.00 0.00 0.00 61 1019.3
20260508210029 59 151 0.0 3.5 0.00 0.00 0.00 61 1019.2
20260508205030 60 116 1.7 7.0 0.00 0.00 0.00 61 1019.1
20260508204030 59 104 2.6 6.1 0.00 0.00 0.00 62 1019.1
20260508203029 59 86 2.6 3.5 0.00 0.00 0.00 61 1019.1
20260508202030 60 85 1.7 2.6 0.00 0.00 0.00 60 1019.0
20260508201029 60 69 2.6 3.5 0.00 0.00 0.00 59 1019.0
20260508200030 61 57 3.5 4.3 0.00 0.00 0.00 59 1018.9
20260508195030 61 58 2.6 3.5 0.00 0.00 0.00 57 1018.9
20260508194030 62 67 1.7 3.5 0.00 0.00 0.00 56 1018.9
20260508193030 62 59 2.6 3.5 0.00 0.00 0.00 56 1018.7
20260508192029 63 57 1.7 5.2 0.00 0.00 0.00 55 1018.6
20260508191030 63 94 2.6 7.0 0.00 0.00 0.00 50 1018.5
20260508190029 64 107 1.7 6.1 0.00 0.00 0.00 50 1018.4
20260508185030 64 105 1.7 7.0 0.00 0.00 0.00 49 1018.2
20260508184030 65 106 1.7 6.1 0.00 0.00 0.00 48 1018.1
20260508183029 65 105 1.7 7.0 0.00 0.00 0.00 48 1018.1
20260508182030 65 89 0.9 3.5 0.00 0.00 0.00 47 1018.0
20260508181029 65 71 0.9 3.5 0.00 0.00 0.00 47 1018.0
20260508180030 65 85 1.7 3.5 0.00 0.00 0.00 46 1017.9
20260508175030 65 79 0.9 2.6 0.00 0.00 0.00 46 1017.8
20260508174030 65 81 0.9 2.6 0.00 0.00 0.00 48 1017.8
20260508173030 65 77 0.9 1.7 0.00 0.00 0.00 47 1017.9
20260508172029 65 95 0.0 1.7 0.00 0.00 0.00 48 1017.8
20260508171030 65 133 0.9 1.7 0.00 0.00 0.00 47 1017.7
20260508170030 65 91 1.7 6.1 0.00 0.00 0.00 48 1017.7
20260508165029 65 100 1.7 6.1 0.00 0.00 0.00 47 1017.7
20260508164030 65 73 0.0 3.5 0.00 0.00 0.00 47 1017.6
20260508163029 65 101 0.9 6.1 0.00 0.00 0.00 46 1017.5
20260508162030 65 121 1.7 9.6 0.00 0.00 0.00 46 1017.5
20260508161029 65 98 0.0 6.1 0.00 0.00 0.00 46 1017.6
20260508160030 65 118 0.9 7.8 0.00 0.00 0.00 46 1017.6
20260508155030 66 120 0.9 7.8 0.00 0.00 0.00 46 1017.6